Location: Kerguer�zec
(48.4509°N, 4.7600°W)
Time: 21:33:12
(UTC+00:00)

N. Korean satellite - Pass Details

Date: 10 March 2021
Orbit: 452 x 499 km, 97.2° (Epoch: 15 April)

Event Time Altitude Azimuth Distance (km) Brightness Sun altitude
Rises 05:23:10 0° 19° (NNE) 2,548 10.6 -13.9°
Reaches altitude 10° 05:25:19 10° 27° (NNE) 1,672 9.8 -13.6°
Maximum altitude 05:28:43 40° 98° (E) 738 8.1 -13.0°
Drops below altitude 10° 05:32:09 10° 169° (S) 1,681 9.3 -12.5°
Sets 05:34:18 0° 177° (S) 2,564 10.2 -12.1°
